Vorticity
4 -1 4 5 -2 7 6 5 1 2 6 15 -2 11 22 -1 -1 1 10 8 6 21 15 -1 1 -3 1 -3 1 1 13 8 4 6 10 6 11 8 5 6 6 4 9 6
8 2 3 4 5 3 5 6 7 5 -15 11 -1 15 39 6 -5 6 11 4 13 17 13 -1 6 1 4 -3 2 6 7 11 8 11 6 11 8 7 4 4 9 7 1 8
11 26 1 3 8 14 8 10 13 -3 -0 15 29 28 41 6 -0 6 10 10 1 7 7 8 -4 11 5 1 7 1 7 18 9 7 9 13 3 6 5 8 7 9 6 4
12 -32 16 22 7 -1 9 8 -3 3 10 13 19 16 18 15 -2 3 7 21 -10 18 11 -2 4 -4 21 8 4 2 -3 17 13 9 5 8 4 9 6 17 4 5 5 6
8 12 13 5 23 7 19 11 1 -1 7 6 23 -1 20 17 22 15 -0 8 5 12 24 5 -0 -5 5 8 2 4 7 1 17 9 6 6 5 9 -2 5 3 3 4 7
7 -7 6 23 7 10 -9 9 3 23 4 17 19 8 27 8 -3 25 42 3 13 -3 23 27 -0 9 -3 8 13 -0 5 4 17 9 5 7 7 13 8 5 2 6 6 6
9 12 10 9 7 2 8 14 12 8 13 13 -9 9 9 4 7 9 4 28 26 43 13 7 19 9 21 4 15 15 8 10 11 13 7 6 9 8 9 13 2 6 7 6
17 15 27 16 26 7 5 32 -17 10 8 18 4 21 -24 6 17 40 11 16 13 11 21 17 -2 9 7 5 5 12 13 11 8 12 7 6 7 9 9 3 -1 3 8 4
8 5 3 26 29 12 10 8 23 3 8 6 10 -3 21 -5 7 6 -3 38 13 16 6 15 2 3 15 14 7 7 12 6 13 12 10 7 7 7 8 10 11 6 2 4
9 13 3 29 -17 35 15 12 13 17 2 9 9 -29 18 37 15 10 16 8 30 7 18 14 5 -8 -2 4 6 6 6 8 2 21 12 8 7 7 7 7 6 8 9 12
6 6 -2 17 -3 15 24 12 14 7 15 12 6 -11 12 4 9 6 1 20 20 28 22 2 11 4 2 -3 -4 2 8 10 7 5 8 10 7 8 5 6 7 6 5 14
6 6 12 17 37 4 15 -4 18 19 -2 8 25 -28 -8 3 10 16 4 13 26 19 7 25 -3 12 9 12 -0 5 1 6 14 9 9 7 9 8 7 5 5 7 6 4
6 -0 14 3 -3 -5 -21 -7 4 6 16 -6 25 -6 20 3 2 7 22 -2 3 28 23 21 22 10 3 4 15 10 -0 -6 -0 8 17 8 7 8 9 7 7 5 7 6
12 14 13 9 1 -9 1 -1 4 8 9 3 15 3 17 5 15 -1 7 24 5 18 19 29 11 7 7 3 5 13 9 -0 -0 1 7 18 9 7 8 9 6 7 6 6
20 14 9 8 7 7 8 4 11 11 7 8 4 -11 2 12 13 9 1 6 22 12 31 20 15 9 -2 6 -10 25 25 30 8 4 9 7 16 13 11 9 8 6 6 5
9 8 -0 2 2 1 3 4 3 5 10 4 6 1 -2 11 5 8 4 -1 11 7 30 23 24 21 -4 -11 -0 4 -9 9 11 8 -1 -2 5 13 12 13 10 9 7 6
11 7 7 19 8 11 45 38 21 6 9 15 16 5 -0 17 6 9 7 1 4 12 10 23 28 11 18 8 -5 -7 -1 19 9 16 1 3 12 6 10 12 11 11 11 9
6 7 5 9 9 23 13 4 14 17 16 18 25 19 10 19 17 10 13 5 3 2 8 10 9 32 47 43 12 13 -0 -12 35 10 6 14 13 11 9 11 13 11 11 14
10 9 3 2 18 -20 -6 30 23 15 2 -4 -3 2 10 7 4 12 4 10 6 1 6 10 6 -1 9 29 34 25 13 -1 2 28 9 9 -0 9 14 7 9 14 14 15
4 15 16 5 7 -2 20 14 4 5 14 17 12 13 12 -7 18 15 9 7 10 8 2 6 23 -3 1 18 12 49 37 21 6 31 8 12 7 8 19 13 7 10 8 7
6 12 9 14 6 20 7 -10 -7 15 -10 7 9 8 14 -2 1 23 7 5 5 11 9 1 3 8 -4 -2 34 10 22 13 18 21 9 -7 -1 6 3 5 7 12 9 8
10 13 11 18 10 19 18 17 19 16 18 14 15 12 5 8 -3 17 21 7 4 9 15 16 2 1 15 -17 8 50 -3 2 29 13 24 11 6 9 13 -4 16 11 3 2
15 14 7 7 -1 2 2 -7 10 8 10 5 3 -0 5 7 6 -1 9 11 -1 11 4 9 18 16 -9 39 -21 1 16 45 17 9 -4 -0 10 -7 -3 5 11 23 15 11
10 2 -7 3 -9 4 28 40 37 31 8 10 12 1 3 15 15 -4 -1 7 4 13 2 8 5 7 26 -12 21 -0 -0 2 10 54 13 8 17 25 23 -5 2 5 15 10
4 9 9 8 3 2 3 6 23 30 25 16 15 19 21 23 9 5 16 18 6 2 16 8 2 10 15 26 8 -1 -19 8 -12 10 19 28 23 -0 27 17 -19 25 13 15
23 13 1 9 7 7 -1 2 -4 18 16 28 20 12 15 23 26 26 21 10 8 8 7 8 13 4 1 15 25 22 11 -34 6 -4 8 10 19 22 30 4 19 3 -19 10
Height
3123 3127 3129 3135 3139 3142 3144 3145 3145 3150 3153 3151 3151 3151 3153 3157 3157 3158 3161 3162 3165 3168 3174 3178 3184 3189 3193 3197 3201 3204 3207 3209 3210 3214 3217 3220 3223 3224 3225 3226 3228 3228 3229 3231
3124 3124 3131 3135 3138 3141 3142 3142 3146 3149 3149 3149 3148 3148 3150 3155 3156 3157 3160 3163 3165 3168 3172 3175 3181 3185 3190 3195 3199 3203 3206 3207 3210 3214 3217 3220 3222 3223 3226 3228 3229 3229 3230 3231
3122 3126 3131 3134 3136 3139 3140 3139 3145 3148 3148 3146 3145 3145 3147 3152 3154 3156 3158 3163 3165 3167 3170 3171 3176 3181 3187 3191 3196 3201 3204 3207 3209 3212 3215 3218 3220 3222 3225 3227 3229 3229 3231 3232
3122 3125 3128 3130 3133 3136 3137 3138 3143 3145 3147 3147 3147 3148 3147 3150 3151 3153 3156 3158 3161 3164 3169 3170 3173 3177 3183 3188 3194 3199 3203 3206 3208 3210 3214 3217 3221 3223 3226 3228 3230 3231 3231 3232
3122 3123 3126 3128 3130 3134 3133 3138 3140 3142 3144 3146 3145 3148 3146 3149 3149 3149 3151 3155 3158 3162 3165 3168 3170 3176 3183 3185 3190 3196 3201 3204 3206 3209 3212 3216 3219 3222 3226 3228 3229 3230 3232 3233
3120 3122 3124 3126 3128 3131 3132 3135 3137 3139 3143 3144 3144 3146 3145 3145 3147 3147 3148 3152 3155 3158 3161 3165 3169 3175 3179 3183 3188 3193 3198 3202 3205 3207 3211 3214 3217 3220 3223 3226 3228 3230 3232 3233
3118 3120 3122 3123 3125 3128 3129 3132 3134 3138 3140 3142 3142 3145 3147 3148 3146 3145 3146 3147 3150 3154 3158 3162 3163 3168 3174 3178 3184 3189 3194 3198 3203 3205 3208 3212 3216 3218 3221 3224 3226 3229 3231 3233
3116 3120 3119 3120 3122 3124 3126 3128 3130 3135 3139 3138 3141 3143 3146 3146 3143 3141 3141 3144 3149 3150 3153 3156 3159 3164 3169 3175 3180 3186 3190 3195 3199 3203 3206 3210 3214 3217 3219 3222 3225 3227 3230 3232
3115 3117 3119 3119 3119 3122 3123 3125 3127 3129 3133 3136 3140 3143 3142 3141 3140 3137 3137 3139 3142 3145 3147 3152 3156 3160 3165 3170 3175 3181 3186 3190 3196 3201 3205 3208 3211 3214 3217 3220 3223 3225 3227 3230
3114 3116 3118 3118 3118 3118 3118 3123 3125 3126 3134 3138 3138 3142 3144 3138 3137 3136 3133 3134 3137 3141 3145 3149 3153 3157 3162 3167 3172 3177 3183 3186 3192 3198 3201 3205 3209 3212 3215 3217 3219 3222 3225 3227
3113 3115 3118 3119 3120 3119 3120 3120 3123 3125 3129 3132 3139 3144 3142 3139 3136 3135 3133 3131 3132 3135 3140 3147 3150 3155 3159 3165 3169 3174 3178 3182 3187 3191 3197 3201 3205 3208 3211 3214 3217 3219 3222 3224
3112 3114 3117 3119 3120 3120 3121 3123 3123 3125 3131 3131 3133 3142 3137 3136 3134 3133 3131 3130 3129 3130 3134 3141 3147 3151 3155 3160 3165 3169 3173 3177 3183 3189 3192 3196 3200 3204 3206 3210 3214 3216 3218 3221
3113 3115 3118 3123 3124 3122 3121 3125 3127 3129 3131 3133 3135 3135 3133 3132 3130 3129 3128 3129 3128 3128 3131 3134 3142 3146 3150 3154 3158 3162 3166 3171 3178 3184 3188 3191 3194 3198 3202 3205 3208 3212 3215 3217
3114 3115 3118 3121 3123 3123 3123 3125 3127 3130 3133 3134 3131 3129 3130 3128 3126 3127 3126 3127 3127 3126 3125 3129 3135 3143 3147 3148 3151 3155 3159 3163 3170 3176 3182 3186 3189 3193 3197 3201 3203 3207 3210 3213
3113 3115 3117 3118 3119 3120 3121 3124 3126 3128 3131 3133 3130 3129 3128 3128 3127 3128 3127 3126 3126 3123 3125 3127 3131 3136 3142 3144 3147 3147 3151 3155 3160 3166 3173 3179 3185 3188 3191 3194 3197 3200 3203 3207
3111 3113 3115 3116 3116 3115 3116 3119 3122 3124 3125 3127 3128 3128 3126 3128 3127 3127 3126 3126 3125 3123 3123 3124 3126 3129 3132 3139 3141 3143 3147 3149 3151 3158 3165 3171 3177 3181 3184 3188 3191 3194 3197 3200
3111 3111 3112 3113 3113 3112 3114 3115 3118 3118 3118 3121 3124 3125 3124 3125 3125 3124 3123 3123 3124 3123 3121 3121 3121 3123 3126 3131 3134 3138 3142 3144 3146 3149 3156 3162 3168 3173 3176 3180 3183 3186 3189 3193
3108 3110 3112 3113 3113 3114 3113 3114 3115 3115 3116 3115 3117 3121 3120 3119 3122 3119 3119 3120 3120 3121 3121 3120 3121 3119 3121 3123 3127 3130 3135 3139 3139 3143 3148 3155 3161 3166 3170 3172 3176 3178 3180 3184
3106 3108 3111 3113 3113 3111 3110 3110 3111 3112 3114 3113 3113 3116 3116 3114 3116 3117 3116 3116 3116 3117 3117 3118 3119 3119 3118 3118 3118 3121 3124 3130 3135 3138 3143 3149 3154 3158 3163 3165 3169 3171 3172 3175
3103 3105 3109 3110 3111 3110 3106 3107 3108 3107 3107 3106 3108 3111 3113 3110 3110 3112 3112 3111 3110 3111 3113 3113 3113 3115 3115 3115 3114 3113 3117 3121 3127 3132 3136 3139 3144 3148 3154 3159 3163 3166 3166 3168
3101 3102 3103 3105 3105 3102 3101 3102 3104 3103 3106 3102 3102 3103 3105 3105 3104 3105 3104 3105 3105 3104 3105 3107 3107 3110 3111 3113 3112 3112 3112 3116 3120 3125 3130 3133 3136 3139 3145 3151 3156 3159 3161 3163
3098 3099 3099 3100 3100 3098 3094 3095 3098 3096 3095 3095 3096 3096 3096 3096 3095 3098 3097 3097 3099 3099 3098 3100 3103 3105 3107 3107 3109 3106 3107 3111 3113 3116 3120 3126 3129 3134 3138 3143 3148 3151 3153 3155
3097 3097 3097 3098 3095 3093 3091 3089 3088 3087 3088 3089 3088 3088 3087 3087 3084 3089 3092 3091 3090 3091 3092 3092 3093 3097 3100 3101 3103 3107 3106 3107 3110 3111 3115 3117 3122 3125 3128 3135 3141 3142 3144 3147
3093 3093 3093 3092 3091 3088 3084 3081 3080 3080 3080 3080 3079 3078 3078 3077 3076 3075 3081 3083 3082 3083 3084 3084 3087 3088 3089 3094 3097 3098 3101 3103 3104 3105 3109 3111 3113 3117 3121 3124 3132 3136 3137 3139
3092 3090 3089 3087 3086 3084 3082 3080 3077 3074 3072 3071 3069 3067 3065 3064 3064 3063 3067 3070 3072 3073 3075 3075 3076 3079 3081 3081 3087 3093 3094 3095 3097 3100 3102 3104 3105 3108 3112 3116 3123 3127 3130 3133
3087 3086 3085 3083 3083 3082 3080 3077 3074 3071 3067 3064 3062 3060 3056 3051 3048 3047 3053 3055 3058 3060 3062 3066 3068 3070 3073 3076 3078 3079 3086 3087 3089 3091 3093 3095 3097 3098 3103 3108 3113 3115 3121 3126